This is the latest recevied weather packets stored in our database for station/object KO4DYK. If no packets are shown the sender has not sent any weather packets the latest 10 day(s).
| Time | Temp. | Humidity | Pressure | Rain* | Wind** | Luminosity | Snow |
|---|---|---|---|---|---|---|---|
| 1788557515 | 37.78° C | 45% | 1014.4 hPa | 0 mm | - | 373 W/m² | - |
| 1788557215 | 37.78° C | 46% | 1014.5 hPa | 0 mm | - | 433 W/m² | - |
| 1788556910 | 37.78° C | 47% | 1014.4 hPa | 0 mm | - | 393 W/m² | - |
| 1788556627 | 37.78° C | 47% | 1014.4 hPa | 0 mm | - | 425 W/m² | - |
| 1788556305 | 37.78° C | 47% | 1014.6 hPa | 0 mm | - | 415 W/m² | - |
| 1788556005 | 38.33° C | 46% | 1014.5 hPa | 0 mm | - | 424 W/m² | - |
| 1788555700 | 37.78° C | 46% | 1014.4 hPa | 0 mm | - | 468 W/m² | - |
| 1788555396 | 37.78° C | 46% | 1014.6 hPa | 0 mm | - | 458 W/m² | - |
| 1788555093 | 40.56° C | 44% | 1014.8 hPa | 0 mm | - | 158 W/m² | - |
| 1788554788 | 40° C | 42% | 1014.7 hPa | 0 mm | - | 504 W/m² | - |
| 1788554484 | 39.44° C | 42% | 1014.7 hPa | 0 mm | - | 500 W/m² | - |
| 1788554180 | 39.44° C | 43% | 1014.9 hPa | 0 mm | - | 505 W/m² | - |
| 1788553876 | 38.89° C | 45% | 1014.7 hPa | 0 mm | - | 529 W/m² | - |
| 1788553572 | 38.89° C | 44% | 1015.1 hPa | 0 mm | - | 541 W/m² | - |
| 1788553269 | 40° C | 42% | 1015.1 hPa | 0 mm | - | 556 W/m² | - |
| 1788552968 | 39.44° C | 42% | 1015 hPa | 0 mm | - | 533 W/m² | - |
| 1788552663 | 38.89° C | 45% | 1015.3 hPa | 0 mm | - | 581 W/m² | - |
| 1788552362 | 38.89° C | 44% | 1015.5 hPa | 0 mm | - | 548 W/m² | - |
| 1788552057 | 38.33° C | 45% | 1015.6 hPa | 0 mm | - | 557 W/m² | - |
| 1788551756 | 37.78° C | 48% | 1015.6 hPa | 0 mm | - | 557 W/m² | - |
| 1788551455 | 38.33° C | 46% | 1015.6 hPa | 0 mm | - | 349 W/m² | - |
| 1788551150 | 40° C | 42% | 1015.8 hPa | 0 mm | - | 635 W/m² | - |
| 1788550845 | 40° C | 42% | 1015.9 hPa | 0 mm | - | 600 W/m² | - |
| 1788550545 | 39.44° C | 43% | 1015.9 hPa | 0 mm | - | 633 W/m² | - |
| 1788550242 | 40.56° C | 43% | 1016.1 hPa | 0 mm | - | 624 W/m² | - |
* Rain latest hour (hover to see other rain measurements)
** Current wind speed in m/s (hover to see current wind gust speed)